Terug naar catalogus

HULIANWANG DIGUI-130

ActiefCommunicatieLEO
NORAD 67238·PAYLOAD·🇨🇳 China

Gelanceerd Dec 25, 2025 vanaf Wenchang Space Launch Site

Loading…

Volgende Passages (komende 24 uur)

TLE

VersSource: Space-Track

Epoch: Sep 14, 2026, 02:34 UTC

1 67238U 25311C   26257.10752810 -.00000075  00000-0  10491-3 0  9995
2 67238  50.0048 157.1068 0000291 300.2503  59.8340 13.29326882 35166

Volg HULIANWANG DIGUI-130 in realtime met AllMySat

Download on the App Store